Weather Roundup
Issued by NWS

Home | Current Version | Previous Version | Graphics & Text | Print | Product List | Glossary Off
Versions: 1 2 3 4 5 6 7 8 9 10 11 12 13 14 15 16 17 18 19 20 21 22 23 24 25 26 27 28 29 30 31 32 33 34 35 36 37 38 39 40 41 42 43 44 45 46 47 48 49 50

000
NZUS93 KARX 172159
HRRWXR

CURRENT HOURLY OBSERVATIONS ACROSS
MUCH OF THE UPPER MISSISSIPPI VALLEY
NATIONAL WEATHER SERVICE LA CROSSE WI
400 PM CST WED DEC 17 2014


...SOUTHEAST MINNESOTA...


CITY           SKY/WX    TMP DP  RH WIND       PRES   REMARKS
ROCHESTER      PTCLDY    18  12  77 N9        30.25S WCI   7
ROCHESTER/MAYO FAIR      19  11  71 NW6       30.26S WCI  11
WINONA         MOCLDY    21  14  73 N6        30.30S WCI  14
AUSTIN         CLEAR     19  14  79 N7        30.25R WCI  10
ALBERT LEA     CLEAR     19  16  86 N8        30.25S WCI   9
DODGE CENTER   CLEAR     18  16  93 N8        30.24F WCI   7
PRESTON        PTCLDY    19  13  79 NW6       30.25R WCI  10
OWATONNA       CLEAR     19  12  73 NW8       30.26S WCI   9
FARIBAULT      CLEAR     19  12  73 N5        30.28S WCI  13
$$

...ELSEWHERE IN MINNESOTA...


CITY           SKY/WX    TMP DP  RH WIND       PRES   REMARKS
MINNEAPOLIS    MOCLDY    19  10  68 NE6       30.31R WCI  11
INTNL FALLS    CLEAR     19   4  51 CALM      30.31R
DULUTH         CLOUDY    20  12  71 N6        30.25R WCI  12
RED WING       CLOUDY    19  10  68 N6        30.30R WCI  11
REDWOOD FALLS  CLEAR     18  12  77 NW7       30.29S WCI   9
MANKATO        CLEAR     19  10  68 N8        30.28S WCI   9
WORTHINGTON    CLEAR     19  12  73 N5        30.25S WCI  13
FAIRMONT       PTCLDY    19  12  73 N6        30.27S WCI  11
$$

...SOUTHWEST WISCONSIN...


CITY           SKY/WX    TMP DP  RH WIND       PRES   REMARKS
LA CROSSE      CLOUDY    23  12  62 N8        30.28S WCI  14
PRAIRIE DU CHI CLEAR     25  13  61 NW5       30.26S WCI  19
BOSCOBEL       CLEAR     25  13  60 NW5       30.26S WCI  19
LONE ROCK      NOT AVBL
PLATTEVILLE    PTCLDY    23  16  75 CALM      30.24R
FORT MC COY    CLOUDY    20  13  74 NW6       30.28R WCI  12
VIROQUA        FAIR      21  15  76 N10       30.22S WCI  10
WIS DELLS      NOT AVBL
$$

...ELSEWHERE IN WISCONSIN...


CITY           SKY/WX    TMP DP  RH WIND       PRES   REMARKS
MILWAUKEE      CLOUDY    26  14  60 NW14G23   30.21R WCI  14
MADISON        PTCLDY    23  14  68 NW8       30.22S WCI  14
GREEN BAY      CLOUDY    26  16  65 W13       30.18R WCI  15
EAU CLAIRE     NOT AVBL
BLACK RVR FLS  CLOUDY    20  12  70 NW9       30.27R WCI   9
MEDFORD        FLURRIES  18  11  73 W8        30.20R WCI   8
WAUSAU         CLOUDY    21  12  68 NW12      30.19R WCI   9
WIS RAPIDS     MOCLDY    20  11  68 NW7       30.25R WCI  11
MARSHFIELD     PTCLDY    19  11  70 NW12      30.22R WCI   7
RICE LAKE      MOCLDY    19  10  68 NW5       30.29R WCI  12
$$

...NORTHEAST IOWA...


CITY           SKY/WX    TMP DP  RH WIND       PRES   REMARKS
DECORAH        PTCLDY    21  14  73 N7G13     30.24R WCI  13
MASON CITY     PTCLDY    21  14  74 NW9       30.28R WCI  11
CHARLES CITY   PTCLDY    23  18  80 N9        30.26R WCI  13
OELWEIN        CLEAR     23  16  74 NW10      30.26R WCI  12
$$

...ELSEWHERE IN IOWA...


CITY           SKY/WX    TMP DP  RH WIND       PRES   REMARKS
DES MOINES     MOCLDY    28  13  53 CALM      30.29R
IOWA CITY      CLEAR     26  15  63 NW8       30.30R WCI  18
FORT DODGE     CLEAR     23  14  68 CALM      30.28S
$$

...NORTHERN ILLINOIS...


CITY           SKY/WX    TMP DP  RH WIND       PRES   REMARKS
CHICAGO-OHARE  CLOUDY    26  16  65 NW12      30.23R WCI  16
CHICAGO-MIDWAY CLOUDY    28  17  63 W12       30.25R WCI  18
MOLINE         CLEAR     28  15  58 NW12      30.28R WCI  18
ROCKFORD       CLOUDY    25  15  66 W9        30.26R WCI  15
PEORIA         PTCLDY    29  19  66 W6        30.28S WCI  23
$$

NOTE: "FAIR" INDICATES FEW OR NO CLOUDS BELOW 12,000 FEET WITH NO
SIGNIFICANT WEATHER AND/OR OBSTRUCTIONS TO VISIBILITY. WIND
SPEEDS ARE IN MILES-PER-HOUR.



USA.gov is the U.S. government's official web portal to all federal, state and local government web resources and services.